Pittsburgh Allegheny Co., PA

4:35 PM EDT on June 25, 2017 (GMT -0400)
Allegheny County

Weather History for KAGC - November, 2012

Change the Weather History Date:

Wednesday, November 7, 2012

  Actual Average Record
Temperature  
Mean Temperature 36 °F -  
Max Temperature 41 °F 49 °F 71 °F (2008)
Min Temperature 30 °F 33 °F 28 °F (2007)
Degree Days  
Heating Degree Days 30    
Moisture  
Dew Point 22 °F    
Average Humidity 60    
Maximum Humidity 75    
Minimum Humidity 48    
Precipitation  
Precipitation 0.00 in - - ()
Sea Level Pressure  
Sea Level Pressure 29.99 in    
Wind  
Wind Speed 4 mph (North)    
Max Wind Speed 9 mph    
Max Gust Speed -    
Visibility 10 miles    
Events      
Averages and records for this station are not official NWS values.
T = Trace of Precipitation, MM = Missing Value Source: NWS Daily Summary

Daily Weather History Graph

Daily Weather History Graph

Search for Another Location

Airport or City:

Trip Planner

Search our weather history database for the weather conditions in past years. The results will help you decide how hot, cold, wet, or windy it might be!

Date:

Astronomy

Nov. 07, 2012 Rise Set
Actual Time 6:56 AM EST 5:09 PM EST
Civil Twilight 6:28 AM EST 5:38 PM EST
Nautical Twilight 5:55 AM EST 6:10 PM EST
Astronomical Twilight 5:23 AM EST 6:42 PM EST
Moon No Moon Rise 1:18 PM EST (11/7)
Length of Visible Light 11h 09m
Length of Day
10h 12m
Last Quarter, 43% of the Moon is Illuminated
Nov 7
Last Quarter
Nov 13
New
Nov 20
First Quarter
Nov 28
Full
Dec 6
Last Quarter

Hourly Weather History & Observations

Time (EST) Temp. Windchill Dew Point Humidity Pressure Visibility Wind Dir Wind Speed Gust Speed Precip Events Conditions
12:53 AM 33.1 °F 30.0 °F 21.9 °F 64% 29.96 in 10.0 mi ENE 3.5 mph - N/A   Clear
1:53 AM 30.9 °F 26.2 °F 21.9 °F 69% 29.97 in 10.0 mi ENE 4.6 mph - N/A   Clear
2:53 AM 30.9 °F 27.5 °F 21.9 °F 69% 29.95 in 10.0 mi NE 3.5 mph - N/A   Clear
3:53 AM 30.9 °F 26.2 °F 21.9 °F 69% 29.94 in 10.0 mi NE 4.6 mph - N/A   Clear
4:53 AM 30.9 °F - 23.0 °F 72% 29.95 in 10.0 mi Calm Calm - N/A   Clear
5:53 AM 30.0 °F 26.5 °F 23.0 °F 75% 29.94 in 9.0 mi North 3.5 mph - N/A   Clear
6:53 AM 30.0 °F 25.2 °F 21.9 °F 72% 29.96 in 9.0 mi NE 4.6 mph - N/A   Clear
7:53 AM 30.0 °F 26.5 °F 21.9 °F 72% 29.98 in 7.0 mi Variable 3.5 mph - N/A   Clear
8:53 AM 33.1 °F 30.0 °F 24.1 °F 70% 29.99 in 8.0 mi NNE 3.5 mph - N/A   Clear
9:53 AM 35.1 °F 31.0 °F 24.1 °F 64% 30.00 in 10.0 mi Variable 4.6 mph - N/A   Clear
10:53 AM 37.0 °F 32.4 °F 24.1 °F 59% 30.00 in 10.0 mi Variable 5.8 mph - N/A   Clear
11:53 AM 39.0 °F - 24.1 °F 55% 29.99 in 10.0 mi Calm Calm - N/A   Clear
12:53 PM 39.9 °F - 24.1 °F 53% 29.97 in 10.0 mi Calm Calm - N/A   Clear
1:53 PM 41.0 °F - 24.1 °F 51% 29.97 in 10.0 mi Calm Calm - N/A   Clear
2:53 PM 41.0 °F 36.4 °F 24.1 °F 51% 29.97 in 10.0 mi North 6.9 mph - N/A   Clear
3:53 PM 39.9 °F 36.7 °F 21.9 °F 49% 30.00 in 10.0 mi North 4.6 mph - N/A   Clear
4:53 PM 39.0 °F 36.8 °F 21.0 °F 49% 30.01 in 10.0 mi North 3.5 mph - N/A   Clear
5:53 PM 37.4 °F 34.9 °F 21.2 °F 52% 29.98 in 10.0 mi North 3.5 mph - N/A   Clear
6:53 PM 37.0 °F 32.4 °F 19.0 °F 48% 30.04 in 10.0 mi NNW 5.8 mph - N/A   Clear
7:53 PM 35.1 °F 29.3 °F 19.9 °F 54% 30.05 in 10.0 mi NNW 6.9 mph - N/A   Clear
8:53 PM 35.1 °F 29.3 °F 19.9 °F 54% 30.06 in 10.0 mi NNW 6.9 mph - N/A   Clear
9:53 PM 34.0 °F 28.0 °F 19.0 °F 54% 30.05 in 10.0 mi NNW 6.9 mph - N/A   Clear
10:53 PM 33.1 °F 26.9 °F 19.0 °F 56% 30.05 in 10.0 mi NNW 6.9 mph - N/A   Clear
11:53 PM 33.1 °F 25.5 °F 19.0 °F 56% 30.06 in 10.0 mi NNW 9.2 mph - N/A   Clear